TimeCDT,TemperatureF,Dew PointF,Humidity,Sea Level PressureIn,VisibilityMPH,Wind Direction,Wind SpeedMPH,Gust SpeedMPH,PrecipitationIn,Events,Conditions,WindDirDegrees,DateUTC
12:13 AM,19.4,10.4,68,30.04,10.0,North,21.9,-,N/A,,Overcast,360,2014-03-31 05:13:00
12:33 AM,19.4,10.4,68,30.03,10.0,North,20.7,27.6,N/A,,Overcast,10,2014-03-31 05:33:00
12:53 AM,17.6,10.4,73,30.02,10.0,North,24.2,27.6,N/A,,Overcast,10,2014-03-31 05:53:00
1:13 AM,17.6,10.4,73,30.02,10.0,North,25.3,-,N/A,,Overcast,360,2014-03-31 06:13:00
1:33 AM,17.6,10.4,73,30.03,10.0,North,23.0,27.6,N/A,,Scattered Clouds,360,2014-03-31 06:33:00
1:53 AM,17.6,8.6,68,30.05,10.0,North,20.7,-,N/A,,Mostly Cloudy,360,2014-03-31 06:53:00
2:13 AM,17.6,10.4,73,30.05,10.0,North,18.4,25.3,N/A,,Overcast,360,2014-03-31 07:13:00
2:33 AM,-9999,-9999,N/A,30.05,5.0,North,19.6,25.3,N/A,,Unknown,360,2014-03-31 07:33:00
2:53 AM,15.8,10.4,79,30.05,3.0,North,18.4,25.3,N/A,,Overcast,360,2014-03-31 07:53:00
3:12 AM,15.8,10.4,79,30.04,2.5,North,19.6,26.5,N/A,Snow,Light Snow,360,2014-03-31 08:12:00
3:33 AM,15.8,10.4,79,30.04,2.5,North,18.4,-,N/A,Snow,Light Snow,360,2014-03-31 08:33:00
3:53 AM,15.8,10.4,79,30.03,3.0,North,18.4,24.2,N/A,Snow,Light Snow,360,2014-03-31 08:53:00
4:13 AM,15.8,10.4,79,30.02,4.0,North,20.7,25.3,N/A,Snow,Light Snow,360,2014-03-31 09:13:00
4:33 AM,17.6,10.4,73,30.01,4.0,North,19.6,26.5,N/A,Snow,Light Snow,360,2014-03-31 09:33:00
4:53 AM,17.6,10.4,73,30.01,7.0,North,23.0,28.8,N/A,Snow,Light Snow,360,2014-03-31 09:53:00
5:13 AM,17.6,10.4,73,30.00,10.0,North,21.9,-,N/A,,Mostly Cloudy,360,2014-03-31 10:13:00
5:33 AM,17.6,12.2,79,30.00,5.0,North,21.9,27.6,N/A,Snow,Light Snow,360,2014-03-31 10:33:00
5:53 AM,17.6,12.2,79,29.99,2.0,North,21.9,27.6,N/A,Snow,Light Snow,360,2014-03-31 10:53:00
6:13 AM,19.4,14.0,80,29.99,1.5,North,23.0,28.8,N/A,Snow,Light Snow,360,2014-03-31 11:13:00
6:33 AM,17.6,15.8,93,29.97,1.2,North,19.6,26.5,N/A,Snow,Light Snow,360,2014-03-31 11:33:00
6:53 AM,19.4,15.8,86,29.98,0.8,North,21.9,26.5,N/A,Snow,Snow,10,2014-03-31 11:53:00
7:13 AM,19.4,17.6,93,29.97,0.8,North,24.2,29.9,N/A,Snow,Snow,10,2014-03-31 12:13:00
7:33 AM,21.2,17.6,86,29.98,0.2,North,19.6,25.3,N/A,Snow,Snow,10,2014-03-31 12:33:00
7:54 AM,21.2,17.6,86,29.98,0.2,NNE,23.0,27.6,N/A,Snow,Snow,20,2014-03-31 12:54:00
8:13 AM,21.2,17.6,86,29.99,0.2,NNE,23.0,31.1,N/A,Snow,Snow,20,2014-03-31 13:13:00
8:33 AM,21.2,17.6,86,30.00,0.2,NNE,23.0,29.9,N/A,Snow,Snow,20,2014-03-31 13:33:00
8:53 AM,21.2,17.6,86,29.99,0.2,North,26.5,-,N/A,Snow,Snow,10,2014-03-31 13:53:00
9:13 AM,19.4,17.6,93,29.97,0.5,North,24.2,31.1,N/A,Snow,Snow,10,2014-03-31 14:13:00
9:33 AM,19.4,17.6,93,29.96,0.2,North,24.2,32.2,N/A,Snow,Snow,10,2014-03-31 14:33:00
9:53 AM,19.4,17.6,93,29.96,0.5,North,27.6,33.4,N/A,Snow,Snow,10,2014-03-31 14:53:00
10:13 AM,19.4,15.8,86,29.95,0.8,North,21.9,28.8,N/A,Snow,Light Snow,10,2014-03-31 15:13:00
10:33 AM,19.4,15.8,86,29.95,0.5,North,26.5,32.2,N/A,Snow,Light Snow,10,2014-03-31 15:33:00
10:53 AM,19.4,15.8,86,29.97,0.5,North,20.7,29.9,N/A,Snow,Snow,10,2014-03-31 15:53:00
11:14 AM,17.6,15.8,93,29.99,0.5,North,23.0,27.6,N/A,Snow,Snow,360,2014-03-31 16:14:00
11:33 AM,17.6,15.8,93,29.98,0.2,North,21.9,27.6,N/A,Snow,Snow,10,2014-03-31 16:33:00
11:53 AM,17.6,14.0,86,29.97,0.2,North,26.5,-,N/A,Snow,Snow,10,2014-03-31 16:53:00
12:14 PM,17.6,14.0,86,29.96,0.2,North,25.3,31.1,N/A,Snow,Heavy Snow,360,2014-03-31 17:14:00
12:33 PM,17.6,14.0,86,29.95,0.2,North,24.2,32.2,N/A,Snow,Snow,360,2014-03-31 17:33:00
12:53 PM,17.6,14.0,86,29.94,0.2,North,24.2,29.9,N/A,Snow,Snow,10,2014-03-31 17:53:00
1:14 PM,17.6,14.0,86,29.94,0.2,North,21.9,27.6,N/A,Snow,Snow,10,2014-03-31 18:14:00
1:33 PM,17.6,14.0,86,29.94,0.2,North,23.0,-,N/A,Snow,Snow,10,2014-03-31 18:33:00
1:53 PM,17.6,14.0,86,29.93,0.2,North,23.0,28.8,N/A,Snow,Snow,10,2014-03-31 18:53:00
2:13 PM,17.6,14.0,86,29.92,0.2,North,21.9,27.6,N/A,Snow,Snow,360,2014-03-31 19:13:00
2:33 PM,17.6,14.0,86,29.92,0.2,North,24.2,29.9,N/A,Snow,Snow,10,2014-03-31 19:33:00
2:53 PM,17.6,14.0,86,29.91,0.2,North,24.2,33.4,N/A,Snow,Snow,10,2014-03-31 19:53:00
3:13 PM,17.6,14.0,86,29.91,0.2,North,27.6,-,N/A,Snow,Snow,10,2014-03-31 20:13:00
3:33 PM,17.6,14.0,86,29.91,0.2,North,24.2,27.6,N/A,Snow,Snow,360,2014-03-31 20:33:00
3:53 PM,17.6,14.0,86,29.90,0.2,North,25.3,32.2,N/A,Snow,Snow,10,2014-03-31 20:53:00
4:13 PM,17.6,14.0,86,29.91,0.2,North,24.2,29.9,N/A,Snow,Snow,10,2014-03-31 21:13:00
4:33 PM,17.6,14.0,86,29.90,0.2,North,21.9,31.1,N/A,Snow,Snow,10,2014-03-31 21:33:00
4:53 PM,17.6,14.0,86,29.90,0.2,North,21.9,27.6,N/A,Snow,Snow,10,2014-03-31 21:53:00
5:13 PM,17.6,14.0,86,29.90,0.2,North,25.3,33.4,N/A,Snow-Thunderstorm,Heavy Thunderstorms and Snow,10,2014-03-31 22:13:00
5:33 PM,17.6,14.0,86,29.90,-9999.0,North,23.0,28.8,N/A,,Overcast,10,2014-03-31 22:33:00
5:53 PM,17.6,14.0,86,29.91,-9999.0,North,23.0,-,N/A,,Overcast,10,2014-03-31 22:53:00
6:13 PM,17.6,14.0,86,29.91,-9999.0,North,20.7,35.7,N/A,,Overcast,10,2014-03-31 23:13:00
6:33 PM,17.6,14.0,86,29.92,-9999.0,North,21.9,28.8,N/A,,Overcast,10,2014-03-31 23:33:00
6:53 PM,17.6,15.8,93,29.94,-9999.0,NNE,23.0,29.9,N/A,,Overcast,20,2014-03-31 23:53:00
7:13 PM,17.6,15.8,93,29.95,-9999.0,North,19.6,23.0,N/A,,Overcast,10,2014-04-01 00:13:00
7:33 PM,17.6,15.8,93,29.94,-9999.0,North,21.9,27.6,N/A,,Overcast,10,2014-04-01 00:33:00
7:53 PM,17.6,15.8,93,29.95,-9999.0,North,20.7,26.5,N/A,,Overcast,360,2014-04-01 00:53:00
8:13 PM,17.6,15.8,93,29.95,-9999.0,North,19.6,-,N/A,,Overcast,360,2014-04-01 01:13:00
8:33 PM,17.6,15.8,93,29.95,-9999.0,North,18.4,25.3,N/A,,Overcast,350,2014-04-01 01:33:00
8:53 PM,17.6,15.8,93,29.94,-9999.0,North,23.0,-,N/A,,Overcast,360,2014-04-01 01:53:00
9:13 PM,17.6,15.8,93,29.94,-9999.0,North,20.7,27.6,N/A,,Overcast,360,2014-04-01 02:13:00
9:33 PM,17.6,15.8,93,29.94,-9999.0,North,25.3,29.9,N/A,,Overcast,360,2014-04-01 02:33:00
9:53 PM,17.6,15.8,93,29.94,-9999.0,North,23.0,29.9,N/A,,Overcast,360,2014-04-01 02:53:00
10:13 PM,17.6,14.0,86,29.95,-9999.0,North,21.9,28.8,N/A,,Unknown,360,2014-04-01 03:13:00
10:33 PM,17.6,14.0,86,29.94,-9999.0,North,21.9,26.5,N/A,,Overcast,360,2014-04-01 03:33:00
10:53 PM,17.6,12.2,79,29.94,-9999.0,North,23.0,27.6,N/A,,Overcast,360,2014-04-01 03:53:00
11:13 PM,17.6,12.2,79,29.94,-9999.0,North,18.4,25.3,N/A,,Overcast,360,2014-04-01 04:13:00
11:33 PM,17.6,10.4,73,29.94,-9999.0,North,20.7,26.5,N/A,,Overcast,360,2014-04-01 04:33:00
11:53 PM,17.6,10.4,73,29.94,10.0,North,20.7,-,N/A,,Overcast,360,2014-04-01 04:53:00